KB6CYS Weather Reports


Display with metric or nautical units.
time (UTC)temp
F
wind
direction
speed
MPH
gust
MPH
rain 1hr
in
rain 24hr
in
rain mn
in
humidity
%
barometer
mb
20260506135003 54 61 1.0 3.0 0.00 0.00 0.00 1016.6
20260506134502 54 53 1.0 3.0 0.00 0.00 0.00 1016.6
20260506134002 54 73 2.0 4.0 0.00 0.00 0.00 1017.0
20260506133501 54 42 2.0 4.0 0.00 0.00 0.00 1016.6
20260506133002 54 46 1.0 2.0 0.00 0.00 0.00 1016.6
20260506132502 54 55 1.0 2.0 0.00 0.00 0.00 1016.6
20260506132003 54 360 0.0 1.0 0.00 0.00 0.00 1017.0
20260506131502 54 158 0.0 2.0 0.00 0.00 0.00 1016.3
20260506131002 54 158 0.0 2.0 0.00 0.00 0.00 1016.3
20260506130501 54 96 1.0 2.0 0.00 0.00 0.00 1016.0
20260506130002 54 113 1.0 3.0 0.00 0.00 0.00 1015.6
20260506125503 54 87 1.0 3.0 0.00 0.00 0.00 1016.0
20260506125004 54 110 1.0 3.0 0.00 0.00 0.00 1016.3
20260506124502 54 113 1.0 3.0 0.00 0.00 0.00 1016.6
20260506124004 54 113 1.0 3.0 0.00 0.00 0.00 1016.6
20260506123524 54 113 2.0 3.0 0.00 0.00 0.00 1016.6
20260506123002 54 81 1.0 3.0 0.00 0.00 0.00 1016.3
20260506122503 54 84 2.0 3.0 0.00 0.00 0.00 1017.0
20260506122001 54 88 1.0 2.0 0.00 0.00 0.00 1016.6
20260506121502 54 90 1.0 2.0 0.00 0.00 0.00 1016.6
20260506121002 54 90 0.0 2.0 0.00 0.00 0.00 1016.6
20260506120502 54 77 1.0 2.0 0.00 0.00 0.00 1016.3
20260506120002 54 44 1.0 2.0 0.00 0.00 0.00 1016.0
20260506115501 54 54 1.0 3.0 0.00 0.00 0.00 1016.3
20260506115003 54 62 2.0 3.0 0.00 0.00 0.00 1016.3
20260506114502 54 76 2.0 3.0 0.00 0.00 0.00 1016.3
20260506114003 54 82 2.0 3.0 0.00 0.00 0.00 1016.0
20260506113502 55 91 2.0 3.0 0.00 0.00 0.00 1015.6
20260506113001 55 68 1.0 3.0 0.00 0.00 0.00 1015.6
20260506112503 55 76 1.0 3.0 0.00 0.00 0.00 1016.0
20260506112003 55 90 2.0 3.0 0.00 0.00 0.00 1015.6
20260506111502 55 85 2.0 4.0 0.00 0.00 0.00 1016.3
20260506111002 55 74 2.0 4.0 0.00 0.00 0.00 1016.0
20260506110502 55 88 2.0 3.0 0.00 0.00 0.00 1016.6
20260506110001 55 87 1.0 3.0 0.00 0.00 0.00 1016.0
20260506105502 55 87 2.0 3.0 0.00 0.00 0.00 1016.0
20260506105001 55 97 2.0 2.0 0.00 0.00 0.00 1016.0
20260506104502 56 68 1.0 2.0 0.00 0.00 0.00 1016.0
20260506104002 56 44 1.0 2.0 0.00 0.00 0.00 1016.3
20260506103502 56 42 1.0 2.0 0.00 0.00 0.00 1016.0
20260506103001 56 46 1.0 2.0 0.00 0.00 0.00 1016.3
20260506102523 56 68 1.0 2.0 0.00 0.00 0.00 1016.0
20260506102023 56 64 1.0 2.0 0.00 0.00 0.00 1016.0
20260506101502 56 49 1.0 2.0 0.00 0.00 0.00 1016.3
20260506101003 56 82 1.0 3.0 0.00 0.00 0.00 1016.3
20260506100501 56 46 1.0 3.0 0.00 0.00 0.00 1016.3
20260506100002 56 63 2.0 2.0 0.00 0.00 0.00 1016.3
20260506095504 56 44 2.0 3.0 0.00 0.00 0.00 1016.6
20260506095002 56 44 1.0 3.0 0.00 0.00 0.00 1016.6
20260506094502 56 41 1.0 2.0 0.00 0.00 0.00 1016.6
20260506094001 56 113 1.0 1.0 0.00 0.00 0.00 1016.0
20260506093503 56 113 0.0 0.0 0.00 0.00 0.00 1016.0
20260506093023 56 113 0.0 0.0 0.00 0.00 0.00 1016.0
20260506092503 56 113 0.0 1.0 0.00 0.00 0.00 1016.0
20260506092002 56 113 0.0 1.0 0.00 0.00 0.00 1015.6
20260506091502 56 113 0.0 2.0 0.00 0.00 0.00 1016.3
20260506091002 56 114 1.0 2.0 0.00 0.00 0.00 1016.0
20260506090502 56 137 1.0 2.0 0.00 0.00 0.00 1016.0
20260506090002 56 158 1.0 2.0 0.00 0.00 0.00 1016.3
20260506085502 57 158 1.0 2.0 0.00 0.00 0.00 1016.6
20260506085002 57 158 1.0 2.0 0.00 0.00 0.00 1016.3
20260506084502 57 158 1.0 2.0 0.00 0.00 0.00 1016.0
20260506084024 57 158 1.0 2.0 0.00 0.00 0.00 1016.6
20260506083503 57 174 1.0 2.0 0.00 0.00 0.00 1016.6
20260506083001 57 180 0.0 2.0 0.00 0.00 0.00 1016.3
20260506082502 57 156 1.0 3.0 0.00 0.00 0.00 1016.3
20260506082002 57 163 1.0 3.0 0.00 0.00 0.00 1016.3
20260506081501 57 161 1.0 2.0 0.00 0.00 0.00 1016.3
20260506081003 57 137 1.0 2.0 0.00 0.00 0.00 1016.3
20260506080524 57 122 1.0 3.0 0.00 0.00 0.00 1016.6
20260506073503 58 99 1.0 3.0 0.00 0.00 0.00 1016.6
20260506073002 58 113 0.0 3.0 0.00 0.00 0.00 1017.0
20260506072523 58 127 2.0 3.0 0.00 0.00 0.00 1017.0
20260506072002 58 98 1.0 3.0 0.00 0.00 0.00 1017.3
20260506071502 58 97 1.0 3.0 0.00 0.00 0.00 1017.0
20260506071002 58 90 1.0 3.0 0.00 0.00 0.00 1017.3
20260506070502 58 93 1.0 3.0 0.00 0.00 0.00 1017.0
20260506062503 59 112 0.0 2.0 0.00 0.00 0.00 1016.0
20260506062002 59 113 1.0 2.0 0.00 0.00 0.00 1016.0
20260506061503 59 100 1.0 2.0 0.00 0.00 0.00 1016.3
20260506061002 59 129 1.0 3.0 0.00 0.00 0.00 1016.0
20260506060523 59 107 2.0 3.0 0.00 0.00 0.00 1016.0
20260506051002 60 234 1.0 3.0 0.00 0.00 0.00 1016.0
20260506050523 60 202 0.0 3.0 0.00 0.00 0.00 1015.6
20260506045002 61 202 2.0 4.0 0.00 0.00 0.00 1015.6
20260506044504 61 209 2.0 4.0 0.00 0.00 0.00 1015.6
20260506044003 61 203 1.0 4.0 0.00 0.00 0.00 1015.6
20260506043502 61 216 2.0 4.0 0.00 0.00 0.00 1015.3
20260506043002 61 214 2.0 4.0 0.00 0.00 0.00 1015.3
20260506042524 61 209 2.0 4.0 0.00 0.00 0.00 1015.3
20260506042024 61 217 2.0 3.0 0.00 0.00 0.00 1014.9
20260506041502 62 205 2.0 5.0 0.00 0.00 0.00 1015.3
20260506041002 62 207 3.0 5.0 0.00 0.00 0.00 1015.3
20260506040502 62 205 2.0 4.0 0.00 0.00 0.00 1014.9
20260506040023 62 205 3.0 5.0 0.00 0.00 0.00 1015.3
20260506035524 62 205 3.0 5.0 0.00 0.00 0.00 1014.9
20260506035003 62 215 3.0 5.0 0.00 0.00 0.00 1014.9
20260506034502 62 207 2.0 4.0 0.00 0.00 0.00 1014.9
20260506034002 62 219 1.0 4.0 0.00 0.00 0.00 1014.3
20260506033524 63 220 3.0 5.0 0.00 0.00 0.00 1014.6
20260506033002 63 235 2.0 5.0 0.00 0.00 0.00 1013.9
20260506032524 63 247 4.0 6.0 0.00 0.00 0.00 1014.3
20260506032002 63 268 2.0 8.0 0.00 0.00 0.00 1014.3
20260506031524 63 281 4.0 8.0 0.00 0.00 0.00 1013.6
20260506031002 63 278 3.0 5.0 0.00 0.00 0.00 1014.3
20260506030502 63 281 3.0 5.0 0.00 0.00 0.00 1014.3
20260506030002 63 308 1.0 6.0 0.00 0.00 0.00 1014.6
20260506025504 63 268 3.0 6.0 0.00 0.00 0.00 1014.3
20260506025002 63 282 3.0 7.0 0.00 0.00 0.00 1014.3
20260506024502 63 280 4.0 7.0 0.00 0.00 0.00 1013.9
20260506024003 64 250 4.0 7.0 0.00 0.00 0.00 1014.3
20260506023503 64 268 4.0 7.0 0.00 0.00 0.00 1013.6
20260506023002 64 274 2.0 7.0 0.00 0.00 0.00 1013.6
20260506022501 64 286 4.0 7.0 0.00 0.00 0.00 1013.9
20260506022003 64 277 4.0 7.0 0.00 0.00 0.00 1013.2
20260506021503 64 282 3.0 7.0 0.00 0.00 0.00 1013.2
20260506021002 64 264 2.0 10.0 0.00 0.00 0.00 1013.9
20260506020503 64 281 5.0 10.0 0.00 0.00 0.00 1013.6
20260506020002 64 282 6.0 9.0 0.00 0.00 0.00 1012.9
20260506015502 64 284 6.0 9.0 0.00 0.00 0.00 1013.2
20260506015003 64 289 5.0 9.0 0.00 0.00 0.00 1013.2
20260506014523 64 284 4.0 14.0 0.00 0.00 0.00 1013.2
20260506014002 65 284 6.0 14.0 0.00 0.00 0.00 1012.9
20260506013502 66 276 5.0 13.0 0.00 0.00 0.00 1012.9
20260506013002 66 275 8.0 13.0 0.00 0.00 0.00 1013.2
20260506012503 66 280 6.0 10.0 0.00 0.00 0.00 1013.2
20260506012002 66 277 6.0 10.0 0.00 0.00 0.00 1013.2
20260506011523 66 288 5.0 10.0 0.00 0.00 0.00 1013.2
20260506011023 66 284 5.0 14.0 0.00 0.00 0.00 1013.2
20260506010502 66 276 6.0 14.0 0.00 0.00 0.00 1013.2
20260506010002 66 284 5.0 10.0 0.00 0.00 0.00 1013.6
20260506005503 66 283 4.0 10.0 0.00 0.00 0.00 1012.9
20260506005002 65 281 5.0 11.0 0.00 0.00 0.00 1012.6
20260506004502 65 277 6.0 11.0 0.00 0.00 0.00 1012.9
20260506004002 66 301 5.0 11.0 0.00 0.00 0.00 1012.6
20260506003502 65 293 5.0 13.0 0.00 0.00 0.00 1013.6
20260506003002 66 290 7.0 13.0 0.00 0.00 0.00 1013.6
20260506002502 66 293 5.0 12.0 0.00 0.00 0.00 1013.6
20260506002024 66 286 6.0 14.0 0.00 0.00 0.00 1013.6
20260506001503 67 279 9.0 14.0 0.00 0.00 0.00 1013.2
20260506001002 67 279 8.0 16.0 0.00 0.00 0.00 1012.9
20260506000502 68 262 8.0 16.0 0.00 0.00 0.00 1012.6
20260506000002 68 255 8.0 14.0 0.00 0.00 0.00 1012.2
20260505235502 69 264 4.0 12.0 0.00 0.00 0.00 1012.6
20260505235002 70 223 8.0 12.0 0.00 0.00 0.00 1012.9
20260505234501 70 206 5.0 11.0 0.00 0.00 0.00 1013.2
20260505234002 69 222 7.0 11.0 0.00 0.00 0.00 1012.9
20260505233502 69 214 7.0 11.0 0.00 0.00 0.00 1013.6
20260505233002 69 206 7.0 12.0 0.00 0.00 0.00 1013.2
20260505232502 69 212 6.0 14.0 0.00 0.00 0.00 1012.9
20260505232003 69 233 5.0 15.0 0.00 0.00 0.00 1013.2
20260505231523 70 242 8.0 15.0 0.00 0.00 0.00 1012.9
20260505231024 71 202 6.0 12.0 0.00 0.00 0.00 1012.6
20260505230502 70 207 7.0 14.0 0.00 0.00 0.00 1012.6
20260505230002 70 219 9.0 14.0 0.00 0.00 0.00 1013.2
20260505225502 69 225 7.0 12.0 0.00 0.00 0.00 1013.2
20260505225025 69 204 6.0 14.0 0.00 0.00 0.00 1013.6
20260505224502 69 224 9.0 14.0 0.00 0.00 0.00 1012.9
20260505224002 69 214 8.0 17.0 0.00 0.00 0.00 1012.9
20260505223503 67 215 7.0 17.0 0.00 0.00 0.00 1012.9
20260505223003 67 227 7.0 14.0 0.00 0.00 0.00 1013.2
20260505222502 68 217 6.0 14.0 0.00 0.00 0.00 1013.6
20260505222002 68 193 5.0 15.0 0.00 0.00 0.00 1013.2
20260505221502 68 231 9.0 16.0 0.00 0.00 0.00 1012.9
20260505221023 68 232 11.0 16.0 0.00 0.00 0.00 1012.9
20260505220502 69 212 6.0 17.0 0.00 0.00 0.00 1012.9
20260505220003 69 224 7.0 17.0 0.00 0.00 0.00 1012.9
20260505215525 70 222 9.0 17.0 0.00 0.00 0.00 1013.6
20260505215002 71 200 6.0 16.0 0.00 0.00 0.00 1013.2
20260505214523 70 208 8.0 16.0 0.00 0.00 0.00 1013.6
20260505214002 69 196 5.0 16.0 0.00 0.00 0.00 1013.2
20260505213503 68 243 9.0 18.0 0.00 0.00 0.00 1013.9
20260505213003 68 220 9.0 18.0 0.00 0.00 0.00 1013.9
20260505212502 69 205 7.0 15.0 0.00 0.00 0.00 1013.9
20260505212002 68 214 7.0 15.0 0.00 0.00 0.00 1013.2
20260505211502 68 237 8.0 16.0 0.00 0.00 0.00 1013.2
20260505211003 69 228 9.0 16.0 0.00 0.00 0.00 1013.2
20260505210502 69 209 7.0 15.0 0.00 0.00 0.00 1013.2
20260505210023 68 223 8.0 15.0 0.00 0.00 0.00 1013.9
20260505205503 69 208 8.0 15.0 0.00 0.00 0.00 1014.3
20260505205002 69 186 8.0 13.0 0.00 0.00 0.00 1013.2
20260505204502 69 200 6.0 17.0 0.00 0.00 0.00 1012.9
20260505204003 69 215 9.0 17.0 0.00 0.00 0.00 1013.6
20260505203503 68 200 7.0 17.0 0.00 0.00 0.00 1013.9
20260505203024 68 227 11.0 17.0 0.00 0.00 0.00 1013.6
20260505202502 68 205 8.0 13.0 0.00 0.00 0.00 1013.2
20260505202002 69 217 6.0 14.0 0.00 0.00 0.00 1013.9
20260505201503 68 183 8.0 14.0 0.00 0.00 0.00 1013.9
20260505201024 67 209 7.0 17.0 0.00 0.00 0.00 1013.9
20260505200503 66 208 9.0 17.0 0.00 0.00 0.00 1013.9
20260505200023 66 198 7.0 14.0 0.00 0.00 0.00 1014.3
20260505195502 66 221 8.0 15.0 0.00 0.00 0.00 1013.6
20260505195001 67 213 6.0 15.0 0.00 0.00 0.00 1013.6
20260505194503 67 213 7.0 15.0 0.00 0.00 0.00 1014.3
20260505194004 68 218 9.0 18.0 0.00 0.00 0.00 1014.3
20260505193502 67 231 11.0 18.0 0.00 0.00 0.00 1013.9
20260505193024 67 227 8.0 14.0 0.00 0.00 0.00 1013.9
20260505192502 68 203 7.0 14.0 0.00 0.00 0.00 1013.2
20260505192003 67 195 8.0 14.0 0.00 0.00 0.00 1013.9
20260505191503 66 217 6.0 14.0 0.00 0.00 0.00 1013.2
20260505191024 66 196 7.0 11.0 0.00 0.00 0.00 1013.9
20260505190503 66 195 7.0 12.0 0.00 0.00 0.00 1013.2
20260505190003 66 194 8.0 14.0 0.00 0.00 0.00 1013.2
20260505185503 65 187 7.0 14.0 0.00 0.00 0.00 1014.6
20260505185003 66 206 8.0 15.0 0.00 0.00 0.00 1014.6
20260505184523 66 218 7.0 15.0 0.00 0.00 0.00 1013.6
20260505184002 66 205 8.0 16.0 0.00 0.00 0.00 1014.6
20260505183503 65 220 9.0 18.0 0.00 0.00 0.00 1014.3
20260505183003 65 229 10.0 18.0 0.00 0.00 0.00 1013.6
20260505182503 65 209 6.0 13.0 0.00 0.00 0.00 1013.6
20260505182002 64 192 7.0 14.0 0.00 0.00 0.00 1014.3
20260505181502 65 217 7.0 14.0 0.00 0.00 0.00 1013.9
20260505181002 66 194 7.0 14.0 0.00 0.00 0.00 1014.3
20260505180503 64 208 6.0 17.0 0.00 0.00 0.00 1013.2
20260505180002 63 234 7.0 17.0 0.00 0.00 0.00 1013.6
20260505175502 63 226 6.0 12.0 0.00 0.00 0.00 1013.6
20260505175003 64 222 7.0 12.0 0.00 0.00 0.00 1013.6
20260505174502 64 198 5.0 12.0 0.00 0.00 0.00 1013.9
20260505174003 64 165 5.0 12.0 0.00 0.00 0.00 1013.6
20260505173502 63 225 5.0 11.0 0.00 0.00 0.00 1013.6
20260505173002 63 225 7.0 13.0 0.00 0.00 0.00 1013.6
20260505172502 64 226 7.0 13.0 0.00 0.00 0.00 1013.6
20260505172001 63 261 6.0 12.0 0.00 0.00 0.00 1013.2
20260505171502 64 231 3.0 12.0 0.00 0.00 0.00 1012.9
20260505171002 63 226 7.0 12.0 0.00 0.00 0.00 1012.2
20260505170504 63 258 6.0 9.0 0.00 0.00 0.00 1012.6
20260505170003 62 210 4.0 10.0 0.00 0.00 0.00 1012.6
20260505165502 62 268 4.0 10.0 0.00 0.00 0.00 1013.2
20260505165002 62 261 6.0 10.0 0.00 0.00 0.00 1012.6
20260505164524 62 256 4.0 12.0 0.00 0.00 0.00 1012.6
20260505164003 62 233 6.0 12.0 0.00 0.00 0.00 1012.6
20260505163502 62 218 4.0 9.0 0.00 0.00 0.00 1012.2
20260505163002 61 194 2.0 8.0 0.00 0.00 0.00 1012.2
20260505162503 61 219 4.0 8.0 0.00 0.00 0.00 1012.6
20260505162002 61 211 5.0 9.0 0.00 0.00 0.00 1013.2
20260505161502 60 205 3.0 9.0 0.00 0.00 0.00 1013.2
20260505161002 59 221 3.0 12.0 0.00 0.00 0.00 1012.6
20260505160505 59 240 6.0 12.0 0.00 0.00 0.00 1012.6
20260505153002 58 229 3.0 5.0 0.00 0.00 0.00 1012.6
20260505152502 58 208 3.0 9.0 0.00 0.00 0.00 1012.9
20260505152002 57 243 4.0 9.0 0.00 0.00 0.00 1012.2
20260505151524 57 237 4.0 7.0 0.00 0.00 0.00 1012.9
20260505151002 57 252 3.0 6.0 0.00 0.00 0.00 1012.2
20260505150503 56 238 3.0 6.0 0.00 0.00 0.00 1012.6
20260505140502 55 240 0.0 3.0 0.00 0.00 0.00 1012.6